This is the latest recevied weather packets stored in our database for station/object KI5QWQ. If no packets are shown the sender has not sent any weather packets the latest 10 day(s).
| Time | Temp. | Humidity | Pressure | Rain* | Wind** | Luminosity | Snow |
|---|---|---|---|---|---|---|---|
| 1777661456 | - | - | - | 0 mm | - | - | - |
| 1777661151 | - | - | - | 0 mm | - | - | - |
| 1777660846 | - | - | - | 0 mm | - | - | - |
| 1777660544 | 13.33° C | 99% | 1017.1 hPa | 0 mm | - | 50 W/m² | - |
| 1777660240 | 13.33° C | 99% | 1017.8 hPa | 0 mm | - | 50 W/m² | - |
| 1777659937 | 13.33° C | 99% | 1018.8 hPa | 0 mm | - | 50 W/m² | - |
| 1777659634 | 13.33° C | 99% | 1018.9 hPa | 0 mm | - | 50 W/m² | - |
| 1777659331 | 13.33° C | 99% | 1019.2 hPa | 0 mm | - | 50 W/m² | - |
| 1777659027 | 13.33° C | 99% | 1019.1 hPa | 0 mm | - | 50 W/m² | - |
| 1777658726 | 13.33° C | 99% | 1018.7 hPa | 0 mm | - | 50 W/m² | - |
| 1777658421 | 13.33° C | 99% | 1018 hPa | 0 mm | - | 50 W/m² | - |
| 1777658118 | 13.33° C | 99% | 1017.2 hPa | 0 mm | - | 50 W/m² | - |
| 1777657815 | 13.33° C | 99% | 1016.7 hPa | 0 mm | - | 50 W/m² | - |
| 1777657512 | 13.33° C | 99% | 1016.5 hPa | 0 mm | - | 50 W/m² | - |
| 1777657210 | 13.33° C | 99% | 1016.6 hPa | 0 mm | - | 53 W/m² | - |
| 1777656907 | 13.33° C | 99% | 1016.9 hPa | 0 mm | - | 59 W/m² | - |
| 1777656603 | 13.33° C | 99% | 1017 hPa | 0 mm | - | 42 W/m² | - |
| 1777656299 | 13.33° C | 99% | 1016.7 hPa | 0 mm | - | 37 W/m² | - |
| 1777655995 | 13.89° C | 99% | 1016.3 hPa | 0 mm | - | 51 W/m² | - |
| 1777655690 | 13.89° C | 99% | 1016.4 hPa | 0 mm | - | 65 W/m² | - |
| 1777655388 | 13.89° C | 99% | 1016.4 hPa | 0 mm | - | 69 W/m² | - |
| 1777655084 | 13.89° C | 99% | 1016.3 hPa | 0 mm | - | 101 W/m² | - |
| 1777654782 | 13.89° C | 99% | 1016.3 hPa | 0 mm | - | 84 W/m² | - |
| 1777654479 | 13.89° C | 99% | 1016.4 hPa | 0 mm | - | 77 W/m² | - |
| 1777654177 | 13.89° C | 99% | 1016.5 hPa | 0 mm | - | 68 W/m² | - |
* Rain latest hour (hover to see other rain measurements)
** Current wind speed in m/s (hover to see current wind gust speed)